Weather History for Aberdeen / Amory, MS

Change the Weather History Date:

Sunday, September 9, 2012

  Actual Average (KCBM) Record (KCBM)
Temperature  
Mean Temperature 66 °F -  
Max Temperature 82 °F 86 °F 95 °F (2013)
Min Temperature 51 °F 64 °F 51 °F (2011)
Cooling Degree Days 2    
Growing Degree Days 16 (Base 50)    
Moisture  
Dew Point 50 °F    
Average Humidity 55    
Maximum Humidity 59    
Minimum Humidity 51    
Precipitation  
Precipitation 0.00 in - - ()
Sea Level Pressure  
Sea Level Pressure 30.04 in    
Wind  
Wind Speed 2 mph ()    
Max Wind Speed 10 mph    
Max Gust Speed -    
Visibility 7.6 miles    
Events      
Averages and records for this station are not official NWS values.
T = Trace of Precipitation, MM = Missing Value Source: Averaged Metar Reports

Daily Weather History Graph

Daily Weather History Graph

Search for Another Location

Airport:

Trip Planner

Search our weather history database for the weather conditions in past years. The results will help you decide how hot, cold, wet, or windy it might be!

Date:

Astronomy

Sep. 09, 2012 Rise Set
Actual Time 6:33 AM CDT 7:08 PM CDT
Civil Twilight 6:08 AM CDT 7:33 PM CDT
Nautical Twilight 5:38 AM CDT 8:02 PM CDT
Astronomical Twilight 5:08 AM CDT 8:32 PM CDT
Moon 12:14 AM CDT (9/9) 2:41 PM CDT (9/9)
Length of Visible Light 13h 24m
Length of Day
12h 34m
Last Quarter, 39% of the Moon is Illuminated
Sep 9
Last Quarter
Sep 15
New
Sep 22
First Quarter
Sep 29
Full
Oct 8
Last Quarter

Hourly Weather History & Observations

Time (CDT) Temp. Heat Index Dew Point Humidity Pressure Visibility Wind Dir Wind Speed Gust Speed Precip Events Conditions
12:15 AM 57.2 °F - 42.8 °F 59% 30.00 in 10.0 mi Calm Calm - N/A   Clear
12:35 AM 57.2 °F - 41.0 °F 55% 30.00 in 10.0 mi Calm Calm - N/A   Clear
12:55 AM 57.2 °F - 42.8 °F 59% 30.00 in 10.0 mi Calm Calm - N/A   Clear
1:15 AM 57.2 °F - 41.0 °F 55% 30.00 in 7.0 mi Calm Calm - N/A   Clear
1:35 AM 55.4 °F - 39.2 °F 54% 29.99 in 1.5 mi Calm Calm - N/A   Haze
1:55 AM 55.4 °F - 39.2 °F 54% 29.99 in 4.0 mi Calm Calm - N/A   Haze
2:15 AM 55.4 °F - 39.2 °F 54% 29.98 in 5.0 mi Calm Calm - N/A   Haze
2:35 AM 55.4 °F - 39.2 °F 54% 29.98 in 7.0 mi North 3.5 mph - N/A   Clear
2:55 AM 55.4 °F - 39.2 °F 54% 29.98 in 7.0 mi North 3.5 mph - N/A   Clear
3:15 AM 55.4 °F - 39.2 °F 54% 29.99 in 10.0 mi Calm Calm - N/A   Clear
3:35 AM 55.4 °F - 37.4 °F 51% 29.99 in 1.2 mi Calm Calm - N/A   Haze
3:55 AM 53.6 °F - 37.4 °F 54% 30.00 in 1.5 mi Calm Calm - N/A   Haze
4:15 AM 53.6 °F - 37.4 °F 54% 30.00 in 2.0 mi Calm Calm - N/A   Haze
4:35 AM 53.6 °F - 37.4 °F 54% 30.01 in 0.8 mi Calm Calm - N/A   Haze
4:55 AM 53.6 °F - 37.4 °F 54% 30.01 in 0.5 mi Calm Calm - N/A   Haze
5:15 AM 53.6 °F - 37.4 °F 54% 30.02 in 1.0 mi Calm Calm - N/A   Haze
5:35 AM 53.6 °F - 37.4 °F 54% 30.02 in 1.2 mi Calm Calm - N/A   Haze
5:55 AM 53.6 °F - 37.4 °F 54% 30.03 in 1.2 mi Calm Calm - N/A   Haze
6:15 AM 51.8 °F - 35.6 °F 54% 30.04 in 0.5 mi Calm Calm - N/A   Haze
6:35 AM 51.8 °F - 35.6 °F 54% 30.04 in 0.2 mi Calm Calm - N/A   Haze
6:55 AM 51.8 °F - 35.6 °F 54% 30.05 in 0.2 mi Calm Calm - N/A   Haze
7:55 AM 57.2 °F - 42.8 °F 59% 30.07 in 9.0 mi Calm Calm - N/A   Clear
8:15 AM 60.8 °F - 42.8 °F 52% 30.07 in 9.0 mi North 4.6 mph - N/A   Clear
8:35 AM 60.8 °F - 44.6 °F 55% 30.07 in 9.0 mi North 3.5 mph - N/A   Clear
8:55 AM 62.6 °F - 46.4 °F 55% 30.07 in 10.0 mi Calm Calm - N/A   Clear
9:15 AM 66.2 °F - 48.2 °F 52% 30.08 in 9.0 mi Calm Calm - N/A   Clear
9:35 AM 69.8 °F - 51.8 °F 53% 30.08 in 10.0 mi NNE 3.5 mph - N/A   Clear
9:55 AM 71.6 °F - 53.6 °F 53% 30.08 in 10.0 mi NNW 3.5 mph - N/A   Clear
10:15 AM 73.4 °F - 55.4 °F 53% 30.08 in 10.0 mi North 4.6 mph - N/A   Clear
10:35 AM 73.4 °F - 57.2 °F 57% 30.09 in 10.0 mi NNW 6.9 mph - N/A   Clear
10:55 AM 75.2 °F - 57.2 °F 53% 30.09 in 10.0 mi North 5.8 mph - N/A   Clear
11:15 AM 75.2 °F - 59.0 °F 57% 30.09 in 10.0 mi North 4.6 mph - N/A   Clear
11:35 AM 77.0 °F - 59.0 °F 54% 30.09 in 10.0 mi NNE 8.1 mph - N/A   Clear
11:55 AM 78.8 °F - 60.8 °F 54% 30.08 in 10.0 mi North 9.2 mph - N/A   Clear
12:15 PM 78.8 °F - 60.8 °F 54% 30.08 in 10.0 mi North 10.4 mph - N/A   Clear
12:35 PM 78.8 °F - 60.8 °F 54% 30.08 in 10.0 mi NNE 8.1 mph - N/A   Clear
12:55 PM 78.8 °F - 62.6 °F 57% 30.07 in 10.0 mi NNW 6.9 mph - N/A   Clear
1:15 PM 80.6 °F 81.8 °F 62.6 °F 54% 30.07 in 10.0 mi NNW 10.4 mph - N/A   Clear
1:35 PM 80.6 °F 81.8 °F 62.6 °F 54% 30.06 in 10.0 mi NNE 9.2 mph - N/A   Clear
1:55 PM 80.6 °F 81.8 °F 62.6 °F 54% 30.05 in 10.0 mi NNW 6.9 mph - N/A   Clear
2:15 PM 80.6 °F 82.3 °F 64.4 °F 58% 30.05 in 10.0 mi NNE 10.4 mph - N/A   Clear
2:35 PM 82.4 °F 83.9 °F 64.4 °F 54% 30.04 in 10.0 mi NNW 8.1 mph - N/A   Clear
2:55 PM 82.4 °F 83.9 °F 64.4 °F 54% 30.04 in 10.0 mi North 10.4 mph - N/A   Clear
3:15 PM 82.4 °F 83.9 °F 64.4 °F 54% 30.03 in 10.0 mi North 6.9 mph - N/A   Light Drizzle
3:35 PM 82.4 °F 83.9 °F 64.4 °F 54% 30.03 in 10.0 mi North 8.1 mph - N/A   Clear
3:55 PM 82.4 °F 83.9 °F 64.4 °F 54% 30.03 in 10.0 mi NNW 6.9 mph - N/A   Clear
4:15 PM 82.4 °F 83.9 °F 64.4 °F 54% 30.02 in 10.0 mi NE 4.6 mph - N/A   Clear
4:35 PM 82.4 °F 83.9 °F 64.4 °F 54% 30.02 in 10.0 mi North 3.5 mph - N/A   Clear
4:55 PM 82.4 °F 83.9 °F 64.4 °F 54% 30.02 in 10.0 mi North 8.1 mph - N/A   Clear
5:15 PM 80.6 °F 82.3 °F 64.4 °F 58% 30.02 in 10.0 mi NNE 5.8 mph - N/A   Clear
5:35 PM 80.6 °F 81.8 °F 62.6 °F 54% 30.03 in 10.0 mi NNE 3.5 mph - N/A   Clear
5:55 PM 78.8 °F - 62.6 °F 57% 30.03 in 9.0 mi Calm Calm - N/A   Clear
6:15 PM 78.8 °F - 62.6 °F 57% 30.03 in 10.0 mi Calm Calm - N/A   Clear
6:35 PM 78.8 °F - 60.8 °F 54% 30.03 in 10.0 mi Calm Calm - N/A   Clear
6:55 PM 73.4 °F - 57.2 °F 57% 30.03 in 10.0 mi Calm Calm - N/A   Clear
7:15 PM 69.8 °F - 53.6 °F 56% 30.03 in 10.0 mi Calm Calm - N/A   Clear
7:35 PM 66.2 °F - 50.0 °F 56% 30.03 in 10.0 mi Calm Calm - N/A   Clear
7:55 PM 64.4 °F - 48.2 °F 56% 30.03 in 10.0 mi Calm Calm - N/A   Clear
8:15 PM 62.6 °F - 46.4 °F 55% 30.04 in 10.0 mi Calm Calm - N/A   Clear
8:35 PM 62.6 °F - 46.4 °F 55% 30.05 in 10.0 mi Calm Calm - N/A   Clear
8:55 PM 62.6 °F - 44.6 °F 52% 30.06 in 10.0 mi Calm Calm - N/A   Clear
9:15 PM 60.8 °F - 44.6 °F 55% 30.06 in 10.0 mi Calm Calm - N/A   Clear
9:35 PM 62.6 °F - 44.6 °F 52% 30.07 in 9.0 mi Calm Calm - N/A   Clear
9:55 PM 60.8 °F - 44.6 °F 55% 30.07 in 9.0 mi Calm Calm - N/A   Clear
10:15 PM 60.8 °F - 44.6 °F 55% 30.07 in 9.0 mi Calm Calm - N/A   Clear
10:35 PM 60.8 °F - 44.6 °F 55% 30.07 in 5.0 mi Calm Calm - N/A   Haze
10:55 PM 59.0 °F - 42.8 °F 55% 30.07 in 0.5 mi Calm Calm - N/A   Haze
11:15 PM 59.0 °F - 42.8 °F 55% 30.07 in 8.0 mi Calm Calm - N/A   Clear
11:35 PM 59.0 °F - 42.8 °F 55% 30.07 in 4.0 mi Calm Calm - N/A   Haze
11:55 PM 57.2 °F - 42.8 °F 59% 30.07 in 1.5 mi Calm Calm - N/A   Haze